Location: Deep South Regional Star Gaze
(30.9929°N, 90.9586°W)
Time: 21:37:56
(UTC-06:00)

Daily predictions for brighter satellites

Satellite Brightness Start Highest point End
(mag) Time Altitude Azimuth Time Altitude Azimuth Time Altitude Azimuth
ATLAS 5 CENTAUR R/B 4.2 17:14:45 10° WSW 17:19:58 38° S 17:42:43 10° ESE
Cosmos 1328 Rocket 4.2 17:49:26 10° NNW 17:53:49 63° W 17:58:12 10° S
Milstar 3 3.3 17:47:42 10° W 17:54:43 61° SSW 18:01:34 10° ESE
Aureole 2 Rocket 2.6 17:53:19 10° SSW 17:56:52 89° ESE 18:00:48 10° NNE
Cosmos 1703 4.0 17:56:08 10° SSE 17:59:38 32° E 18:03:08 10° NNE
Cosmos 1151 Rocket 2.9 17:56:38 10° N 18:00:55 71° E 18:05:12 10° SSE
SMAP 3.9 17:58:06 10° S 18:02:40 56° W 18:07:15 10° NNW
Cosmos 1515 Rocket 4.1 18:00:02 10° NNW 18:04:27 66° W 18:08:49 10° S
Cosmos 2278 Rocket 2.3 17:59:01 10° N 18:04:37 58° ENE 18:10:11 10° SSE
Cosmos 1805 Rocket 4.0 18:01:22 10° SSE 18:05:33 43° E 18:09:47 10° NNE
Cosmos 1455 3.8 18:06:25 10° NE 18:08:32 14° ENE 18:10:39 10° ESE
SKYMED 2 3.7 18:06:39 10° N 18:11:01 84° W 18:15:20 10° SSW
Cosmos 1726 2.2 18:08:29 10° N 18:12:15 81° W 18:16:01 10° S
Cosmos 372 Rocket 3.9 18:10:40 10° N 18:15:43 62° ENE 18:20:46 10° SSE
FREGAT/IRIS 4.2 18:14:42 10° ESE 18:16:46 17° ENE 18:18:51 10° NNE
Atlas Centaur 2 4.2 18:15:39 10° W 18:19:44 21° SSW 18:23:12 10° SSE
Meteor 1-27 4.2 18:16:14 10° N 18:22:04 74° E 18:27:54 10° SSE
Sich 1 3.4 18:18:46 10° SSE 18:22:56 43° E 18:27:08 10° NNE
Cosmos 2237 Rocket 3.7 18:18:13 10° SW 18:23:20 36° WNW 18:28:30 10° N
Cosmos 1340 Rocket 3.1 18:19:52 10° SSW 18:23:47 70° W 18:27:42 10° N
USA 215 4.1 18:21:35 13° E 18:26:16 28° NE 18:31:40 10° NNW
Cosmos 1484 Rocket 3.5 18:23:54 10° S 18:27:43 57° W 18:31:38 10° NNW
Cosmos 1300 3.8 18:24:24 10° NNW 18:28:06 48° W 18:31:47 10° SSW
Cosmos 2058 3.9 18:24:18 10° SSW 18:28:16 49° W 18:32:15 10° N
Cosmos 1461 3.6 18:24:44 10° SW 18:28:53 53° WNW 18:32:55 10° NNE
SL-16 R/B 2.3 18:24:29 10° SSW 18:30:08 81° WNW 18:35:49 10° NNE
Cosmos 1633 Rocket 3.3 18:26:13 10° SSE 18:30:25 45° E 18:34:37 10° NNE
Cosmos 2297 3.7 18:41:39 10° NNW 18:47:19 61° ENE 18:52:58 10° SSE
Hubble Space Telescope 3.7 18:46:29 10° SW 18:47:46 11° SSW 18:49:03 10° S
Cosmos 1356 Rocket 3.6 18:45:59 10° SSW 18:49:57 66° W 18:53:55 10° N
OTV 4 0.9 18:47:08 10° WNW 18:50:03 56° SSW 18:50:55 37° SSE
Coronas F rocket 2.3 18:53:24 10° S 18:54:53 33° SSW 18:54:53 33° SSW
Aureole 1 Rocket 3.5 18:52:46 10° SSW 18:57:33 85° ESE 19:04:03 10° NNE
Cosmos 1900 4.3 18:53:49 10° NNW 18:58:43 56° ENE 19:01:59 21° SE
Cosmos 1707 Rocket 3.6 18:55:32 10° N 18:59:51 80° W 19:04:11 10° S
CZ-3A R/B 3.6 18:55:46 10° NNW 19:00:02 36° NE 19:01:31 31° E
Spot 2 Rocket 3.7 18:56:06 10° SE 19:00:49 42° ENE 19:05:34 10° N
Resurs 01 Rocket 2.9 18:57:34 10° SE 19:03:49 26° NNE 19:05:58 10° N
Cosmos 1184 Rocket 3.7 19:01:09 10° SSW 19:04:24 48° W 19:06:41 18° N
Cosmos 1666 Rocket 4.4 19:00:32 10° SSW 19:04:43 50° W 19:08:58 10° N
FENGYUN 3A 3.7 19:00:57 10° SSE 19:06:08 53° ENE 19:11:20 10° N
Cosmos 1655 Rocket 4.5 19:00:37 10° SSE 19:06:20 36° E 19:06:22 36° E
USA 229 DEB 3.7 19:00:05 10° SSW 19:06:56 80° WNW 19:12:13 18° NNE
USA 229 3.7 19:00:11 10° SSW 19:07:01 81° WNW 19:12:16 19° NNE
Lacrosse 5 rocket 1.3 19:05:14 10° NW 19:09:08 74° SW 19:10:49 33° SSE
Tiangong 1 2.0 19:06:34 10° SW 19:08:40 41° SW 19:08:40 41° SW
Cosmos 1943 4.2 19:05:08 10° SSE 19:08:34 27° SE 19:08:34 27° SE
METEOR-M 4.5 19:05:55 10° S 19:11:13 66° WSW 19:16:33 10° NNW
Cosmos 1627 Rocket 4.4 19:08:52 10° S 19:14:56 58° E 19:18:21 26° NNE
Cosmos 1933 Rocket 3.4 19:11:52 10° S 19:16:13 70° E 19:16:13 70° E
Iridium 4 Rocket 3.1 19:11:45 10° S 19:16:28 81° W 19:19:41 18° N
NOSS 3-1 (A) 4.4 19:16:13 10° S 19:19:22 26° SE 19:19:22 26° SE
ALOS 2.1 19:17:07 10° SSE 19:21:47 83° ENE 19:26:28 10° N
Cosmos 923 Rocket 4.0 19:17:08 10° SSW 19:22:20 77° WNW 19:24:48 32° N
FengYun 1-2 T 4.1 19:19:26 10° SSE 19:25:01 87° ENE 19:30:34 10° NNW
Cosmos 1680 Rocket 3.4 19:24:25 10° SSW 19:29:36 88° WNW 19:30:31 62° N
Cosmos 292 Rocket 4.1 19:29:18 10° SSW 19:33:59 63° WNW 19:34:49 53° NNW
Cosmos 1603 4.0 19:29:08 10° SSW 19:34:41 64° WNW 19:36:59 35° N
OAO 1 4.4 19:30:47 10° WSW 19:36:11 83° S 19:36:11 83° S
Cosmos 1470 Rocket 4.1 19:33:19 10° SSW 19:37:36 55° W 19:37:52 54° WNW
Intelsat 5-1 Rocket 3.7 19:35:19 10° WSW 19:38:07 27° S 19:38:07 27° S
Cosmos 2242 Rocket 4.3 19:36:56 10° NNW 19:41:14 52° W 19:45:33 10° S
Cosmos 1455 4.5 19:41:04 10° NW 19:44:11 24° W 19:47:18 10° SW
Cosmos 2026 Rocket 3.9 19:39:48 10° S 19:46:04 85° W 19:47:46 51° N
NOSS 3-1 (C) 3.7 19:54:08 10° SSW 19:58:32 57° SW 19:58:32 57° SW
USA 215 3.3 20:08:58 73° WSW 20:08:58 73° WSW 20:15:22 10° NW
